When you browse on this site, cookies collect data to enhance your experience and personalize the content and advertising you see.
Visit our Privacy Policy to learn more. By continuing to use the site, you agree to this use of cookies and data.
  • In Hungary
  • List of Countries
  • For 7 days
  • Water Temperature
  • Satellite Maps
  • Weather Map
  • News
  • Weather Widgets
  • user-avatar
    Login

    Hourly Weather Ispas

    Today, 17 July, Wednesday

    Time Temperature Precipitation Wind Pressure Humidity
    00:00 +17°C° 0 mm 2 mps 725 mmHg 89%
    01:00 +17°C° 0 mm 2 mps 725 mmHg 88%
    02:00 +14°C° 0.2 mm 4 mps 725 mmHg 97%
    03:00 +15°C° 0.3 mm 2 mps 725 mmHg 97%
    04:00 +15°C° 0 mm 2 mps 725 mmHg 95%
    05:00 +15°C° 0.2 mm 2 mps 725 mmHg 97%
    06:00 +15°C° 0 mm 2 mps 725 mmHg 94%
    07:00 +16°C° 0 mm 3 mps 725 mmHg 91%
    08:00 +17°C° 0 mm 4 mps 726 mmHg 92%
    09:00 +17°C° 0 mm 4 mps 726 mmHg 91%
    10:00 +17°C° 0 mm 4 mps 726 mmHg 89%
    11:00 +18°C° 0 mm 3 mps 726 mmHg 85%
    12:00 +19°C° 0 mm 4 mps 726 mmHg 84%
    13:00 +20°C° 0 mm 3 mps 726 mmHg 83%
    14:00 +20°C° 0 mm 3 mps 725 mmHg 79%
    15:00 +22°C° 0 mm 1 mps 725 mmHg 75%
    16:00 +20°C° 0 mm 0 mps 725 mmHg 77%
    17:00 +21°C° 1.1 mm 1 mps 725 mmHg 88%
    18:00 +22°C° 0 mm 1 mps 725 mmHg 83%
    19:00 +20°C° 2.1 mm 1 mps 725 mmHg 95%
    20:00 +17°C° 1.2 mm 0 mps 725 mmHg 95%
    21:00 +19°C° 0 mm 1 mps 725 mmHg 95%
    22:00 +19°C° 0 mm 1 mps 726 mmHg 92%
    23:00 +19°C° 0 mm 1 mps 726 mmHg 90%

    Tomorrow, 18 July, Thursday

    Time Temperature Precipitation Wind Pressure Humidity
    00:00 +17°C° 0 mm 2 mps 726 mmHg 90%
    01:00 +16°C° 0 mm 1 mps 726 mmHg 91%
    02:00 +16°C° 0 mm 1 mps 726 mmHg 89%
    03:00 +15°C° 0 mm 2 mps 726 mmHg 88%
    04:00 +15°C° 0 mm 2 mps 726 mmHg 88%
    05:00 +14°C° 0 mm 1 mps 726 mmHg 89%
    06:00 +14°C° 0 mm 2 mps 726 mmHg 92%
    07:00 +16°C° 0 mm 2 mps 727 mmHg 92%
    08:00 +16°C° 0 mm 3 mps 727 mmHg 90%
    09:00 +17°C° 0 mm 3 mps 727 mmHg 89%
    10:00 +18°C° 0 mm 3 mps 728 mmHg 88%
    11:00 +19°C° 0 mm 3 mps 728 mmHg 86%
    12:00 +20°C° 0 mm 3 mps 728 mmHg 83%
    13:00 +20°C° 0 mm 3 mps 728 mmHg 81%
    14:00 +20°C° 0 mm 4 mps 728 mmHg 81%
    15:00 +21°C° 0 mm 3 mps 728 mmHg 81%
    16:00 +21°C° 0 mm 3 mps 728 mmHg 81%
    17:00 +20°C° 0.1 mm 2 mps 728 mmHg 82%
    18:00 +21°C° 0 mm 1 mps 728 mmHg 81%
    19:00 +21°C° 0 mm 1 mps 728 mmHg 81%
    20:00 +20°C° 0 mm 1 mps 728 mmHg 90%
    21:00 +18°C° 0 mm 0 mps 729 mmHg 88%
    22:00 +17°C° 0 mm 0 mps 729 mmHg 91%
    23:00 +19°C° 0 mm 1 mps 729 mmHg 92%

    Day after tomorrow, 19 July, Friday

    Time Temperature Precipitation Wind Pressure Humidity
    00:00 +19°C° 0 mm 1 mps 729 mmHg 90%
    01:00 +16°C° 0 mm 0 mps 729 mmHg 89%
    02:00 +18°C° 0 mm 1 mps 729 mmHg 91%
    03:00 +18°C° 0 mm 1 mps 729 mmHg 94%
    04:00 +18°C° 0 mm 1 mps 729 mmHg 95%
    05:00 +16°C° 0 mm 1 mps 729 mmHg 95%
    06:00 +16°C° 0 mm 1 mps 729 mmHg 97%
    07:00 +16°C° 0 mm 0 mps 729 mmHg 96%
    08:00 +20°C° 0 mm 1 mps 729 mmHg 91%
    09:00 +21°C° 0 mm 1 mps 730 mmHg 89%
    10:00 +22°C° 0 mm 1 mps 730 mmHg 86%
    11:00 +23°C° 0 mm 1 mps 730 mmHg 84%
    12:00 +24°C° 0 mm 1 mps 730 mmHg 82%
    13:00 +25°C° 0 mm 3 mps 729 mmHg 85%
    14:00 +25°C° 0 mm 4 mps 729 mmHg 84%

    20 July, Saturday

    Time Temperature Precipitation Wind Pressure Humidity

    21 July, Sunday

    Time Temperature Precipitation Wind Pressure Humidity

    22 July, Monday

    Time Temperature Precipitation Wind Pressure Humidity
    Show more